Regional Weather Roundup
Issued by NWS

Home | Current Version | Previous Version | Text Only | Print | Product List | Glossary On
Versions: 1 2 3 4 5 6 7 8 9 10 11 12 13 14 15 16 17 18 19 20 21 22 23 24 25 26 27 28 29 30 31 32 33 34 35 36 37 38 39 40 41 42 43 44 45 46 47 48 49 50
000
ASUS43 KTOP 301208
RWRKS

WEATHER ROUNDUP FOR KANSAS
NATIONAL WEATHER SERVICE GOODLAND KS
600 AM CST FRI JAN 30 2015

NOTE:  "FAIR" INDICATES FEW OR NO CLOUDS BELOW 12,000 FEET WITH NO
SIGNIFICANT WEATHER AND/OR OBSTRUCTIONS TO VISIBILITY.

KSZ001>006-013>018-027>032-041>047-301300-
NORTHWEST KANSAS

CITY           SKY/WX    TMP DP  RH WIND       PRES   REMARKS
GOODLAND       CLOUDY    29  22  75 S14       30.34F WCI  18
6HR MIN TEMP:  26; 6HR MAX TEMP:  31;

HAYS           PTCLDY    18   7  62 W3        30.47F
HILL CITY      PTCLDY    19  15  84 W3        30.45F
6HR MIN TEMP:  16; 6HR MAX TEMP:  21;

RUSSELL        PTCLDY    19  17  92 S5        30.47S
6HR MIN TEMP:  18; 6HR MAX TEMP:  28;

$$

KSZ061>065-074>080-084>089-301300-
SOUTHWEST KANSAS

CITY           SKY/WX    TMP DP  RH WIND       PRES   REMARKS
DODGE CITY     MOCLDY    26  20  77 S5        30.46S
6HR MIN TEMP:  22; 6HR MAX TEMP:  30;

ELKHART          N/A     34  24  67 S7          N/A
GARDEN CITY    CLOUDY    29  23  78 S5        30.42F
6HR MIN TEMP:  20; 6HR MAX TEMP:  29;

LIBERAL        CLOUDY    34  23  64 S5        30.46F
PRATT          MOCLDY    27  23  86 CALM      30.49F
$$

KSZ066>073-081>083-090>101-301300-
SOUTHEAST KANSAS

CITY           SKY/WX    TMP DP  RH WIND       PRES   REMARKS
CHANUTE        PTCLDY    21  19  92 N3        30.53R
6HR MIN TEMP:  19; 6HR MAX TEMP:  29;

COFFEYVILLE    PTCLDY    21  19  92 NW5       30.54R
6HR MIN TEMP:  21; 6HR MAX TEMP:  30;

HUTCHINSON     MOCLDY    22  18  85 E5        30.51F
6HR MIN TEMP:  19; 6HR MAX TEMP:  26;

MEDICINE LODGE   N/A     22  19  89 CALM      30.51R
NEWTON         PTCLDY    27  18  69 CALM      30.53R
PARSONS        CLEAR     21  18  88 CALM      30.54R
6HR MIN TEMP:  20; 6HR MAX TEMP:  27;

WICHITA INTL   MOCLDY    27  21  78 NE5       30.52S
6HR MIN TEMP:  21; 6HR MAX TEMP:  31;

WICHITA JABRA  FAIR      27  23  85 W3        30.53R
6HR MIN TEMP:  22; 6HR MAX TEMP:  30;

WICHITA MCCONL PTCLDY    29  23  81 CALM      30.53R
WINFIELD       FAIR      22  20  92 N3        30.54S
6HR MIN TEMP:  19; 6HR MAX TEMP:  28;

$$

KSZ007>012-019>026-033>040-048>060-102>105-301300-
NORTHEAST KANSAS

CITY           SKY/WX    TMP DP  RH WIND       PRES   REMARKS
CONCORDIA      PTCLDY    22  20  92 S3        30.51S
6HR MIN TEMP:  17; 6HR MAX TEMP:  30;

EMPORIA        CLEAR     20  19  96 NW3       30.52R
6HR MIN TEMP:  20; 6HR MAX TEMP:  26;

LAWRENCE       CLEAR     16  14  92 NW5       30.55S
6HR MIN TEMP:  13; 6HR MAX TEMP:  21;

MANHATTAN      PTCLDY    17  15  92 CALM      30.53S
6HR MIN TEMP:  15; 6HR MAX TEMP:  21;

MARYSVILLE     PTCLDY    18  14  86 CALM      30.51S FOG
OLATHE IND     CLEAR     19  16  88 N5        30.53F
6HR MIN TEMP:  18; 6HR MAX TEMP:  25;

OLATHE EXE     CLEAR     23  21  92 N5        30.51F
6HR MIN TEMP:  22; 6HR MAX TEMP:  30;

SALINA         PTCLDY    22  17  81 CALM      30.53S
6HR MIN TEMP:  20; 6HR MAX TEMP:  28;

TOPEKA BILLARD PTCLDY    18  15  88 CALM      30.55S
6HR MIN TEMP:  18; 6HR MAX TEMP:  24;

TOPEKA FORBES  PTCLDY    18  15  88 N3        30.52F
6HR MIN TEMP:  18; 6HR MAX TEMP:  27;

$$


USA.gov is the U.S. government's official web portal to all federal, state and local government web resources and services.